Tracking 31027 objects as of 19-Jul-2025
HD Live streaming from Space Station
objects crossing your sky now

STARLINK-6187

Track STARLINK-6187 now!
10-day predictions
STARLINK-6187 is classified as:


NORAD ID: 56546
Int'l Code: 2023-065AV
Perigee: 565.4 km
Apogee: 567.0 km
Inclination: 43.0 °
Period: 95.8 minutes
Semi major axis: 6937 km
RCS: Unknown
Launch date: May 14, 2023
Source: United States (US)
Launch site: AIR FORCE EASTERN TEST RANGE (AFETR)
Your satellite tracking list
STARLINK-4010
Track 1 satellite(s)




NASA's NSSDC Master Catalog

Two Line Element Set (TLE):
1 56546U 23065AV  25199.87398223 -.00000079  00000-0  92360-5 0  9992
2 56546  43.0048  53.7715 0001153 268.2526  91.8184 15.02534036120526
Source of the keplerian elements: AFSPC